Preview of NWS' New Version of Forecast
This preview is not operational and should not be used for support decisions.

Regional Weather Roundup (RWR)

Issued by National Weather Service (NWS)

                            
000
ASUS45 KBOU 221110
RWRCO 

WEATHER ROUNDUP FOR COLORADO
NATIONAL WEATHER SERVICE DENVER/BOULDER CO
500 AM MDT MON APR 22 2019

NOTE: "FAIR" INDICATES FEW OR NO CLOUDS BELOW 12000 FEET WITH NO
SIGNIFICANT WEATHER AND/OR OBSTRUCTIONS TO VISIBILITY.

COZ001>005-013-030-031-221200-
...NORTHWEST COLORADO...
  
CITY           SKY/WX    TMP DP  RH WIND       PRES   REMARKS
CRAIG          FAIR      32  30  92 CALM      30.10R                  
HAYDEN         FAIR      32  30  92 SW5       30.11R WCI  27          
MEEKER         FAIR      32  29  88 CALM      30.10S                  
RANGELY        FAIR      40  37  87 E12       30.06F                  
RABBIT EARS PA FAIR      30  28  93 E7        30.20R WCI  23          
STEAMBOAT SPGS FAIR      35  35 100 CALM      30.09S                  
WALDEN         FAIR      32  30  93 CALM      30.16S                  
$$

COZ006>008-011-221200-
...WEST CENTRAL VALLEYS...
  
CITY           SKY/WX    TMP DP  RH WIND       PRES   REMARKS
GRAND JUNCTION FAIR      45  37  73 E3        29.99S                  
MONTROSE       FAIR      38  24  57 S7        30.05R                  
EAGLE          FAIR      30  27  88 SE5       30.14R WCI  25          
RIFLE          FAIR      35  33  92 E3        30.06R                  
DELTA          FAIR      42  32  68 CALM      30.03R                  
NUCLA          FAIR      39  21  48 E9        30.05S                  
$$

COZ017>023-064>068-221200-
...SOUTHWEST COLORADO...
  
CITY           SKY/WX    TMP DP  RH WIND       PRES   REMARKS
DURANGO        FAIR      33  22  63 N3        30.06R                  
CORTEZ         FAIR      34  24  67 NE5       30.03R WCI  30          
PAGOSA SPRINGS FAIR      37  26  64 CALM      30.12S                  
TELLURIDE      FAIR      36  21  55 SE6       30.14S                  
WOLF CREEK PAS CLOUDY    28  16  59 S9        30.30S WCI  20          
$$

COZ009-010-012-014-032>034-037-058>063-221200-
...CENTRAL COLORADO...
  
CITY           SKY/WX    TMP DP  RH WIND       PRES   REMARKS
ASPEN          FAIR      30  22  72 CALM      30.09S                  
BUENA VISTA    FAIR      31  23  73 W3        30.17R                  
COPPER MTN     FAIR      32  18  55 S13       30.25S WCI  22          
BERTHOUD PASS  FAIR      23  14  68 S10       30.27S WCI  12          
COTTONWOOD PAS FAIR      36  23  60 CALM      30.20S                  
GUNNISON       FAIR      29  25  85 CALM      30.13S                  
GRANBY         FAIR      27  26  94 CALM      30.17R                  
KREMMLING      MOCLDY    30  30 100 CALM      30.16S                  
LEADVILLE      FAIR      26  19  74 E5        30.19S WCI  20          
MONARCH PASS   MOCLDY    30  21  69 E3        30.36S                  
SALIDA         FAIR      39  32  76 CALM      30.23R                  
SUNLIGHT       FAIR      30  18  59 S3        30.22S                  
WILKERSON PASS HVY SNOW  28  27  93 E5        30.27R VSB<1/4 WCI  23  
$$

COZ069>075-221200-
...SAN LUIS VALLEY/SANGRE DE CRISTO MOUNTAINS...
  
CITY           SKY/WX    TMP DP  RH WIND       PRES   REMARKS
ALAMOSA        FAIR      33  23  66 SE7       30.11R WCI  27          
DEL NORTE      FAIR      31  20  65 W10       30.14R WCI  22          
LA VETA PASS   NOT AVBL                                               
SAGUACHE       FAIR      34  19  55 CALM      30.12S                  
$$

COZ035-036-038>040-221200-
...NORTHERN COLORADO FRONT RANGE...
  
CITY           SKY/WX    TMP DP  RH WIND       PRES   REMARKS
DENVER INTL AP CLOUDY    41  40  96 N10       30.18R                  
AURORA         LGT RAIN  40  40 100 N10       30.19R                  
FRONT RANGE AP CLOUDY    43  41  94 N10       30.19R                  
ERIE MUNI ARPT CLOUDY    43  40  90 NE8       30.25R                  
BOULDER MUN AP DRIZZLE   41  41 100 CALM      30.20R                  
CENTENNIAL     LGT RAIN  42  40  92 NE8       30.18R VSB 1            
BROOMFIELD     DRIZZLE   41  41 100 NE9       30.20R                  
FORT COLLINS   CLOUDY    43  38  82 NE5       30.20R                  
LONGMONT       DRIZZLE   45  41  85 NE5       30.21R                  
$$

COZ041-046-047-076>085-087-088-221200-
...PIKES PEAK/PALMER DIVIDE AND SOUTHERN FOOTHILLS...
  
CITY           SKY/WX    TMP DP  RH WIND       PRES   REMARKS
COLO. SPRINGS  MOCLDY    47  38  71 NW9       30.15S                  
A. F. ACADEMY  CLOUDY    43  43 100 NW12      30.15R                  
SCHRIEVER AFB  NOT AVBL                                               
CHEYENNE MTN   MOCLDY    44  35  71 NW12      30.10F                  
ELLICOTT         N/A    N/A N/A N/A N14       30.15R                  
FALCON         CLOUDY    41  39  93 N9        30.18R                  
FORT CARSON    CLOUDY    46  39  77 CALM      30.15R                  
LIMON          CLOUDY    40  40 100 N22       30.14F                  
MONUMENT HILL  FOG       36  36 100 N14G22    30.19R VSB 1/4          
CANON CITY     CLOUDY    50  43  76 E7        30.13R                  
WALSENBURG     NOT AVBL                                               
TRINIDAD       CLOUDY    41  34  76 CALM      30.15R                  
$$

COZ042>045-048>051-090-091-221200-
...NORTHEAST COLORADO...
  
CITY           SKY/WX    TMP DP  RH WIND       PRES   REMARKS
GREELEY ARPT   NOT AVBL                                               
AKRON          CLOUDY    41  38  89 N20       30.14S                  
BURLINGTON     CLOUDY    45  42  89 N18G33    30.09R                  
WRAY           CLOUDY    45  39  81 N18G29    30.12R                  
YUMA           NOT AVBL                                               
STERLING       CLOUDY    43  37  81 N15G23    30.15S                  
HOLYOKE        CLOUDY    45  39  81 N17G28    30.13R                  
FORT MORGAN    NOT AVBL                                               
$$

COZ086-089-092>099-221200-
...SOUTHEAST COLORADO...
  
CITY           SKY/WX    TMP DP  RH WIND       PRES   REMARKS
PUEBLO         CLOUDY    47  40  76 CALM      30.13R                  
LA JUNTA       CLOUDY    50  42  74 NE6       30.13R                  
LAMAR          CLOUDY    49  41  74 N14       30.09R                  
SPRINGFIELD      N/A     44  42  93 N18G31    30.06F                  
$$